Flag for Germany Weather past 2 weeks in Braunschweig, Lower Saxony, Germany

Now
72 °F

Partly sunny.


Feels Like: 74 °F
Forecast: 61 / 81 °F
Wind: 3 mph from North

Location: Braunschweig

Current Time: Jul 26, 2014 at 1:55:04 PM

Latest Report: Jul 26, 2014 at 11:50 AM


Visibility: N/A

Pressure: 29.95 "Hg

Humidity: 73%

Dew point: 63 °F

Location of BraunschweigLocation

Historic Weather in Braunschweig — Graph

°F

Braunschweig temperature yesterday

Maximum temperature yesterday: 70 °F (at 3:50 PM)
Minimum temperature yesterday: 61 °F (at 6:20 AM)
Average temperature yesterday: 65 °F

Past Weeks' High & Low Weather Summary

 TemperatureHumidityPressure
High93 °F (Jul 20, 1:50 PM)100% (Jul 14, 5:50 AM)30.21 "Hg (Jul 14, 5:50 AM)
Low55 °F (Jul 17, 5:50 AM)24% (Jul 19, 4:50 PM)29.71 "Hg (Jul 13, 5:50 PM)
Average74 °F62%30.01 "Hg
* Reported Jul 11 11:20 AM — Jul 26 11:50 AM, Braunschweig, Weather by CustomWeather, © 2014

Note: Actual official high and low records may vary slightly from our data, if they occured in-between our weather recording intervals... More about our weather records

Advertising

Braunschweig weather history for previous 24 hours

 ConditionsComfort  
Time TempWeatherWind HumidityBarometerVisibility
11:50 AM
Jul 26
72 °FPartly sunny.3 mph73%29.95 "HgN/A
11:20 AM70 °FPartly sunny.2 mph83%29.95 "Hg6 mi
10:50 AM68 °FBroken clouds.6 mph88%29.95 "Hg5 mi
10:20 AM66 °FMore clouds than sun.3 mph100%29.95 "Hg4 mi
9:50 AM66 °FMore clouds than sun.6 mph100%29.95 "Hg4 mi
9:20 AM66 °FMore clouds than sun.5 mph100%29.95 "Hg4 mi
8:50 AM66 °FFog.No wind100%29.95 "Hg3 mi
7:50 AM64 °FFog.No wind100%29.95 "Hg2 mi
9:50 PM
Jul 25
64 °FPartly sunny.No wind100%29.92 "HgN/A
9:20 PM64 °FMore clouds than sun.No wind100%29.92 "HgN/A
8:50 PM64 °FPartly sunny.No wind100%29.92 "HgN/A
8:20 PM64 °FBroken clouds.No wind100%29.92 "Hg6 mi
7:50 PM64 °FSunny.3 mph100%29.92 "Hg10 mi
7:20 PM64 °FCloudy.7 mph100%29.92 "HgN/A
6:50 PM64 °FDrizzle. Broken clouds.10 mph100%29.92 "Hg5 mi
6:20 PM68 °FRain. Partly sunny.8 mph100%29.92 "Hg3 mi
5:50 PM68 °FRain. Fog.5 mph100%29.92 "Hg3 mi
5:20 PM68 °FLight rain. Broken clouds.5 mph100%29.95 "Hg4 mi
4:50 PM68 °FDrizzle. Partly sunny.2 mph100%29.95 "Hg5 mi
4:20 PM70 °FDrizzle. Broken clouds.5 mph94%29.95 "Hg5 mi
3:50 PM70 °FDrizzle. Partly sunny.5 mph94%29.95 "Hg5 mi
3:20 PM68 °FLight rain. Broken clouds.5 mph100%29.95 "Hg5 mi
2:20 PM68 °FDrizzle. Partly sunny.6 mph100%29.98 "Hg4 mi
1:50 PM66 °FLight rain. Mostly cloudy.7 mph100%29.98 "Hg4 mi
1:20 PM68 °FMostly cloudy.5 mph100%29.98 "Hg4 mi
Weather by CustomWeather, © 2014

See weather overviewHow to use our weather pages